Location: NJAA Observatory
(40.6819°N, 74.8979°W)
Time: 18:25:20
(UTC-05:00)

Courier 1B - All Passes

Search period start: 19 December 2014 00:00
Search period end: 29 December 2014 00:00
Orbit: 963 x 1209 km, 28.3° (Epoch: 18 December)

Date Brightness Start Highest point End Pass type
(mag) Time Alt. Az. Time Alt. Az. Time Alt. Az.
19 Dec - 10:00:06 10° S 10:03:15 14° SSE 10:06:28 10° SE daylight
19 Dec - 11:50:54 10° SW 11:56:16 26° S 12:01:51 10° ESE daylight
19 Dec - 13:43:49 10° WSW 13:49:32 29° S 13:55:33 10° SE daylight
19 Dec - 15:38:00 10° WSW 15:42:49 19° SSW 15:47:49 10° SSE daylight
20 Dec - 09:09:05 10° SSE 09:09:50 10° SSE 09:10:36 10° SSE daylight
20 Dec - 10:57:46 10° SW 11:02:45 23° SSE 11:07:54 10° ESE daylight
20 Dec - 12:50:19 10° WSW 12:55:58 29° S 13:01:52 10° SE daylight
20 Dec - 14:44:06 10° WSW 14:49:15 22° SSW 14:54:36 10° SSE daylight
21 Dec - 10:04:48 10° SSW 10:09:17 20° SSE 10:13:52 10° ESE daylight
21 Dec - 11:56:55 10° SW 12:02:25 28° S 12:08:09 10° ESE daylight
21 Dec - 13:50:22 10° WSW 13:55:41 25° SSW 14:01:14 10° SE daylight
21 Dec - 15:45:58 10° SW 15:48:51 13° SSW 15:51:47 10° S daylight
22 Dec - 09:12:04 10° SSW 09:15:51 16° SSE 09:19:40 10° ESE daylight
22 Dec - 11:03:35 10° SW 11:08:54 27° S 11:14:23 10° ESE daylight
22 Dec - 12:56:44 10° WSW 13:02:08 26° S 13:07:45 10° SE daylight
22 Dec - 14:51:25 10° SW 14:55:19 16° SSW 14:59:19 10° SSE daylight
23 Dec - 08:19:46 10° S 08:22:26 13° SSE 08:25:06 10° SE daylight
23 Dec - 10:10:20 10° SW 10:15:24 24° S 10:20:35 10° ESE daylight
23 Dec - 12:03:12 10° WSW 12:08:36 27° S 12:14:12 10° SE daylight
23 Dec - 13:57:20 10° WSW 14:01:47 19° SSW 14:06:24 10° SSE daylight
24 Dec - 09:17:11 10° SW 09:21:56 22° SSE 09:26:44 10° ESE daylight
24 Dec - 11:09:43 10° WSW 11:15:05 28° S 11:20:36 10° SE daylight
24 Dec - 13:03:28 10° WSW 13:08:16 21° SSW 13:13:15 10° SSE daylight
25 Dec - 08:24:11 10° SSW 08:28:29 19° SSE 08:32:47 10° ESE daylight
25 Dec - 10:16:17 10° SW 10:21:35 27° S 10:26:58 10° ESE daylight
25 Dec - 12:09:44 10° WSW 12:14:46 24° S 12:19:57 10° SE daylight
25 Dec - 14:05:22 10° SW 14:07:51 12° SSW 14:10:22 10° S daylight
26 Dec - 07:31:25 10° SSW 07:35:03 16° SSE 07:38:39 10° SE daylight
26 Dec - 09:22:55 10° SW 09:28:06 26° S 09:33:19 10° ESE daylight
26 Dec - 11:16:06 10° WSW 11:21:16 25° S 11:26:33 10° SE daylight
26 Dec - 13:10:48 10° SW 13:14:22 15° SSW 13:18:01 10° SSE daylight
27 Dec - 06:39:05 10° S 06:41:37 12° SSE 06:44:07 10° SE visible
27 Dec - 08:29:36 10° SW 08:34:37 24° S 08:39:37 10° ESE daylight
27 Dec - 10:22:31 10° WSW 10:27:47 27° S 10:33:06 10° SE daylight
27 Dec - 12:16:41 10° WSW 12:20:54 18° SSW 12:25:12 10° SSE daylight
28 Dec - 07:36:23 10° SSW 07:41:09 21° SSE 07:45:51 10° ESE daylight
28 Dec - 09:28:59 10° SW 09:34:17 27° S 09:39:36 10° SE daylight
28 Dec - 11:22:47 10° WSW 11:27:25 21° SSW 11:32:08 10° SSE daylight
